Regional Weather Roundup
Issued by NWS Charleston, SC

Current Version | Previous Version | Graphics & Text | Print | Product List | Glossary On
Versions: 1 2 3 4 5 6 7 8 9 10 11 12 13 14 15 16 17 18 19 20 21 22 23 24 25 26 27 28 29 30 31 32 33 34 35 36 37 38 39 40 41 42 43 44 45 46 47 48 49 50
441
ASUS42 KCHS 211427
RWRCHS

REGIONAL WEATHER ROUNDUP
NATIONAL WEATHER SERVICE CHARLESTON SC
900 AM EST SAT JAN 21 2017

NOTE: "FAIR" INDICATES FEW OR NO CLOUDS BELOW 12,000 FEET WITH NO
SIGNIFICANT WEATHER AND/OR OBSTRUCTIONS TO VISIBILITY.

NOT ALL STATIONS ARE QUALITY CONTROLLED. USE DATA WITH CAUTION...
ESPECIALLY DEWPOINT OBSERVATIONS.

SCZ027-030-031-034>040-042>050-211500-
...SOUTHEAST SOUTH CAROLINA...

CITY           SKY/WX    TMP DP  RH WIND       PRES   REMARKS
N CHARLESTON   CLOUDY    65  64  97 S6        29.89F FOG
WATERFRONT PRK   N/A     64  63  96 VRB3      29.89R
MOUNT PLEASANT CLOUDY    66  64  94 S6        29.90S
JOHNS ISLAND   CLOUDY    64  64 100 CALM      29.90S THUNDER
PINOPOLIS        N/A     64  64 100 CALM      29.80S
MONCKS CORNER  CLOUDY    64  63  94 CALM      29.89S
SUMMERVILLE    CLOUDY   N/A N/A N/A CALM      29.90S FOG
BEAUFORT MCAS  TSTM      65  64  97 W7        29.91R VSB 3/4
BEAUFORT ARPT  RAIN      64  63  94 S5        29.89S
HILTON HEAD IS CLOUDY    66  64  94 S9        29.90S FOG
WALTERBORO     CLOUDY    64  63  94 CALM      29.90R FOG
ALLENDALE      LGT RAIN  66  66 100 CALM      29.88R

...SOUTHERN MIDLANDS AND PEE DEE...

CITY           SKY/WX    TMP DP  RH WIND       PRES   REMARKS
GEORGETOWN     CLOUDY    63  61  94 CALM      29.91S FOG
KINGSTREE      FAIR      61  59  94 E3        29.88F
ORANGEBURG     LGT RAIN  62  62 100 CALM      29.87S VSB 1/4
BARNWELL       DRZL/FOG  64  64 100 CALM      29.87S VSB 1/4
AIKEN          FOG       61  61 100 SE5       29.91R VSB 1/4
MANNING        CLOUDY    61  59  94 CALM      29.88F
COLUMBIA       FOG       61  60  97 SE5       29.87R VSB 1/4
SUMTER         CLOUDY    60  58  95 NE3       29.86R
FLORENCE       CLOUDY    59  59 100 E5        29.89S FOG
MYRTLE BEACH   CLOUDY    63  57  82 CALM      29.92S
N MYRTLE BEACH CLOUDY    59  59 100 E3        29.90S FOG

$$

GAZ063-065-086>088-099>101-113>116-118-119-134>141-150-211500-
...SOUTHEAST GEORGIA...

CITY           SKY/WX    TMP DP  RH WIND       PRES   REMARKS
SAVANNAH ARPT  CLOUDY    68  65  90 SE5       29.88S
HUNTER AAF     CLOUDY    67  67 100 S8        29.86S
FORT STEWART   LGT RAIN  68  66  94 S3        29.87R
STATESBORO     LGT RAIN  67  32  27 CALM      29.88R
SYLVANIA       LGT RAIN N/A N/A N/A CALM      29.88R
CLAXTON        CLOUDY   N/A N/A N/A CALM      29.88R HAZE

...CSRA...CENTRAL AND FAR SOUTHEAST GEORGIA...

CITY           SKY/WX    TMP DP  RH WIND       PRES   REMARKS
THOMSON        CLOUDY    65  65 100 CALM      29.90R
AUGUSTA-BUSH   LGT RAIN  64  62  93 SE3       29.87R VSB 3/4
AUGUSTA-DANIEL LGT RAIN  64  61  90 SE3       29.86S VSB 1/4
SWAINSBORO     CLOUDY    66  66 100 SE5       29.87F FOG
VIDALIA        CLOUDY    68  68 100 CALM      29.87S FOG
EASTMAN        FOG       68  68 100 SE6       29.85F VSB 1
HAZLEHURST     CLOUDY    70  70 100 S6        29.85F
ALMA           CLOUDY    70  69  97 S10       29.87R
WAYCROSS       CLOUDY    73  73 100 SW8       29.89R
JESUP          CLOUDY    70  66  88 S6        29.90R
BAXLEY         CLOUDY    70  70 100 S6        29.87S
BRUNSWICK      CLOUDY    70  68  94 S6        29.91R
SAINT SIMONS   CLOUDY    66  65  96 S6        29.90R

$$

SCZ027-028-034-036>038-045-046-048>050-GAZ119-141-211500-
...LAKE AND SUPPLEMENTAL COASTAL OBSERVATIONS...

STATION/POSITION TIME  TEMP    WIND        PRES    WAVE   SWELL
                       AIR SEA DIR/SP/G            HT/PER HT/PER/DIR
                 (UTC) (F)     (DEG/KT/KT) (MB)    (FT/S) (FT/S/D)
WINYAH BAY       1345   61     220/  1     1012.0S
LAKE MURRAY      1330   58      40/  2/  4 1010.8S
ACE BASIN NERRS  1345   63        CALM     1012.0S
FORT PULASKI     1400   65 58  170/  6/  8 1012.4
SAPELO ISLAND    1400   67     160/  6     1012.0

$$

ANZ835-935-AMZ111-154-330-350-352-354-370-450-454-472-211500-
...C-MAN AND BUOY OBSERVATIONS...

STATION/POSITION TIME  TEMP    WIND        PRES    WAVE   SWELL
                       AIR SEA DIR/SP/G            HT/PER HT/PER/DIR
                 (UTC) (F)     (DEG/KT/KT) (MB)    (FT/S) (FT/S/D)
BUOY 41004       1350   69 67  240/ 12/ 14 1012.4R   2/ 4   2/100/12
BUOY 41008       1350   63 61  180/  6/  8 1012.3S   2/12   2/ 60/12
FOLLY BEACH CMAN 1400   59     220/  4/  5 1013.2R
CAPERS NEARSHORE 1408   59 56  230/  8/ 12 1012.6R
FRIPP NEARSHORE  1408   61 59  180/  8/ 10 1012.4R


STATION/POSITION TIME  TEMP    WIND        PRES    WAVE   SWELL
                       AIR SEA DIR/SP/G            HT/PER HT/PER/DIR
                 (UTC) (F)     (DEG/KT/KT) (MB)    (FT/S) (FT/S/D)
5E ST. MARYS GA  1400      63                N/A     2/12   2/ 70/12
FRYING PAN BUOY  1410   68 70   60/  6/  8 1013.0
BUOY 41025       1350   58 74   40/  8/ 10 1014.1R   4/10   3/ 60/10
CAPE LOOKOUT NC  1400   58      60/  9/ 10 1013.6R
BUOY 41002       1350   72 70  340/  4/  4 1014.1R   6/13   5/ 60/13
BUOY 41010       NOT AVBL
ST AUGUSTINE FL  1400   67 63  200/  8/ 11 1014.0R


$$




USA.gov is the U.S. government's official web portal to all federal, state and local government web resources and services.